JAS-2 (FO-29)

Last updated on Sun Jun 21 2026 00:03:20 GMT+0000 (Coordinated Universal Time)

1 24278U 96046B 26171.34242250 -.00000016 00000+0 16133-4 0 9992 2 24278 98.5237 19.7822 0350925 88.2682 275.8612 13.53274552473592
UTC large
Height (km)
Speed (km/s)
/
Latitude / Longitude
Inclination (degrees)
Orbital Period (minutes)
Azimuth
Elevation
Range (km)
Doppler Factor

Next 0 passes for location: London (51.5072 / 0.1276)

No passes found over London.
JAS-2 (FO-29)